Time,TemperatureF,DewpointF,PressureIn,WindDirection,WindDirectionDegrees,WindSpeedMPH,WindSpeedGustMPH,Humidity,HourlyPrecipIn,Conditions,Clouds,dailyrainin,SoftwareType,DateUTC
2013-03-13 00:00:00,53.0,34.4,30.01,West,266,8.0,11.0,49,0.00,,,0.31,WeatherCatV1.11B39,2013-03-13 04:00:00,
2013-03-13 00:01:00,52.9,34.3,30.01,WNW,290,13.0,13.0,49,0.00,,,0.00,WeatherCatV1.11B39,2013-03-13 04:01:00,
2013-03-13 00:06:00,52.7,33.6,30.01,NW,319,8.0,13.0,48,0.00,,,0.00,WeatherCatV1.11B39,2013-03-13 04:06:00,
2013-03-13 00:12:00,52.6,34.0,30.01,NW,305,6.0,11.0,49,0.00,,,0.00,WeatherCatV1.11B39,2013-03-13 04:12:00,
2013-03-13 00:16:00,52.5,33.9,30.02,NW,317,9.0,11.0,49,0.00,,,0.00,WeatherCatV1.11B39,2013-03-13 04:16:00,
2013-03-13 00:21:00,52.3,33.7,30.02,WNW,301,3.0,11.0,49,0.00,,,0.00,WeatherCatV1.11B39,2013-03-13 04:21:00,
2013-03-13 00:26:00,52.1,33.5,30.02,West,279,9.0,15.0,49,0.00,,,0.00,WeatherCatV1.11B39,2013-03-13 04:26:00,
2013-03-13 00:31:00,51.9,33.3,30.02,NNW,329,1.0,8.0,49,0.00,,,0.00,WeatherCatV1.11B39,2013-03-13 04:31:00,
2013-03-13 00:36:00,51.7,33.2,30.02,NW,313,7.0,11.0,49,0.00,,,0.00,WeatherCatV1.11B39,2013-03-13 04:36:00,
2013-03-13 00:41:00,51.5,33.5,30.02,NW,320,3.0,15.0,50,0.00,,,0.00,WeatherCatV1.11B39,2013-03-13 04:41:00,
2013-03-13 00:46:00,51.4,32.9,30.02,WNW,292,7.0,11.0,49,0.00,,,0.00,WeatherCatV1.11B39,2013-03-13 04:46:00,
2013-03-13 00:51:00,51.3,32.8,30.02,WNW,289,3.0,16.0,49,0.00,,,0.00,WeatherCatV1.11B39,2013-03-13 04:51:00,
2013-03-13 00:56:00,51.3,32.8,30.03,NNW,330,1.0,10.0,49,0.00,,,0.00,WeatherCatV1.11B39,2013-03-13 04:56:00,
2013-03-13 01:01:00,51.2,32.7,30.03,WNW,302,4.0,10.0,49,0.00,,,0.00,WeatherCatV1.11B39,2013-03-13 05:01:00,
2013-03-13 01:06:00,50.9,32.4,30.03,NNW,339,6.0,8.0,49,0.00,,,0.00,WeatherCatV1.11B39,2013-03-13 05:06:00,
2013-03-13 01:11:00,50.7,32.7,30.03,WNW,296,6.0,16.0,50,0.00,,,0.00,WeatherCatV1.11B39,2013-03-13 05:11:00,
2013-03-13 01:16:00,50.6,32.7,30.03,WNW,294,5.0,12.0,50,0.00,,,0.00,WeatherCatV1.11B39,2013-03-13 05:16:00,
2013-03-13 01:21:00,50.5,32.1,30.03,NW,309,6.0,9.0,49,0.00,,,0.00,WeatherCatV1.11B39,2013-03-13 05:21:00,
2013-03-13 01:26:00,50.5,32.1,30.03,NW,304,5.0,15.0,49,0.00,,,0.00,WeatherCatV1.11B39,2013-03-13 05:26:00,
2013-03-13 01:31:00,50.4,32.0,30.03,WNW,285,4.0,16.0,49,0.00,,,0.00,WeatherCatV1.11B39,2013-03-13 05:31:00,
2013-03-13 01:36:00,50.4,32.0,30.03,NW,306,8.0,14.0,49,0.00,,,0.00,WeatherCatV1.11B39,2013-03-13 05:36:00,
2013-03-13 01:41:00,50.3,31.9,30.03,WNW,301,3.0,13.0,49,0.00,,,0.00,WeatherCatV1.11B39,2013-03-13 05:41:00,
2013-03-13 01:46:00,50.2,31.8,30.03,NW,317,8.0,13.0,49,0.00,,,0.00,WeatherCatV1.11B39,2013-03-13 05:46:00,
2013-03-13 01:51:00,50.1,31.7,30.03,NW,309,5.0,11.0,49,0.00,,,0.00,WeatherCatV1.11B39,2013-03-13 05:51:00,
2013-03-13 01:56:00,50.0,32.1,30.03,NNW,340,4.0,9.0,50,0.00,,,0.00,WeatherCatV1.11B39,2013-03-13 05:56:00,
2013-03-13 02:01:00,49.7,31.8,30.03,NW,312,5.0,8.0,50,0.00,,,0.00,WeatherCatV1.11B39,2013-03-13 06:01:00,
2013-03-13 02:06:00,49.5,32.1,30.04,NW,309,2.0,6.0,51,0.00,,,0.00,WeatherCatV1.11B39,2013-03-13 06:06:00,
2013-03-13 02:11:00,49.2,31.9,30.04,NW,306,6.0,7.0,51,0.00,,,0.00,WeatherCatV1.11B39,2013-03-13 06:11:00,
2013-03-13 02:17:00,49.0,32.1,30.04,WNW,286,0.0,3.0,52,0.00,,,0.00,WeatherCatV1.11B39,2013-03-13 06:17:00,
2013-03-13 02:22:00,48.8,32.0,30.04,NW,316,0.0,6.0,52,0.00,,,0.00,WeatherCatV1.11B39,2013-03-13 06:22:00,
2013-03-13 02:27:00,48.6,31.8,30.04,WNW,296,2.0,5.0,52,0.00,,,0.00,WeatherCatV1.11B39,2013-03-13 06:27:00,
2013-03-13 02:32:00,48.5,32.2,30.04,WNW,302,4.0,5.0,53,0.00,,,0.00,WeatherCatV1.11B39,2013-03-13 06:32:00,
2013-03-13 02:37:00,48.2,31.4,30.04,WNW,294,6.0,8.0,52,0.00,,,0.00,WeatherCatV1.11B39,2013-03-13 06:37:00,
2013-03-13 02:42:00,48.2,31.4,30.04,WNW,292,1.0,8.0,52,0.00,,,0.00,WeatherCatV1.11B39,2013-03-13 06:42:00,
2013-03-13 02:47:00,48.1,32.2,30.05,NNW,328,3.0,8.0,54,0.00,,,0.00,WeatherCatV1.11B39,2013-03-13 06:47:00,
2013-03-13 02:52:00,47.8,32.0,30.04,NW,325,0.0,5.0,54,0.00,,,0.00,WeatherCatV1.11B39,2013-03-13 06:52:00,
2013-03-13 02:57:00,47.6,31.8,30.04,NNW,328,3.0,6.0,54,0.00,,,0.00,WeatherCatV1.11B39,2013-03-13 06:57:00,
2013-03-13 03:02:00,47.4,32.1,30.05,NNW,344,2.0,6.0,55,0.00,,,0.00,WeatherCatV1.11B39,2013-03-13 07:02:00,
2013-03-13 03:07:00,47.2,31.4,30.05,NW,321,3.0,7.0,54,0.00,,,0.00,WeatherCatV1.11B39,2013-03-13 07:07:00,
2013-03-13 03:12:00,47.0,32.1,30.05,NW,305,4.0,5.0,56,0.00,,,0.00,WeatherCatV1.11B39,2013-03-13 07:12:00,
2013-03-13 03:17:00,46.9,32.0,30.05,NW,324,3.0,4.0,56,0.00,,,0.00,WeatherCatV1.11B39,2013-03-13 07:17:00,
2013-03-13 03:22:00,46.7,31.8,30.05,NNW,331,0.0,4.0,56,0.00,,,0.00,WeatherCatV1.11B39,2013-03-13 07:22:00,
2013-03-13 03:27:00,46.4,32.0,30.05,WNW,302,2.0,7.0,57,0.00,,,0.00,WeatherCatV1.11B39,2013-03-13 07:27:00,
2013-03-13 03:32:00,46.2,31.8,30.04,NW,304,3.0,6.0,57,0.00,,,0.00,WeatherCatV1.11B39,2013-03-13 07:32:00,
2013-03-13 03:37:00,46.0,31.6,30.05,NW,316,0.0,8.0,57,0.00,,,0.00,WeatherCatV1.11B39,2013-03-13 07:37:00,
2013-03-13 03:42:00,46.0,32.1,30.05,NW,309,1.0,7.0,58,0.00,,,0.00,WeatherCatV1.11B39,2013-03-13 07:42:00,
2013-03-13 03:47:00,45.9,32.0,30.04,WNW,283,6.0,6.0,58,0.00,,,0.00,WeatherCatV1.11B39,2013-03-13 07:47:00,
2013-03-13 03:52:00,45.9,31.5,30.04,West,274,7.0,11.0,57,0.00,,,0.00,WeatherCatV1.11B39,2013-03-13 07:52:00,
2013-03-13 03:57:00,46.1,31.3,30.04,NNW,328,3.0,12.0,56,0.00,,,0.00,WeatherCatV1.11B39,2013-03-13 07:57:00,
2013-03-13 04:02:00,46.3,31.5,30.04,NW,320,6.0,7.0,56,0.00,,,0.00,WeatherCatV1.11B39,2013-03-13 08:02:00,
2013-03-13 04:08:00,46.3,31.5,30.04,NW,305,4.0,11.0,56,0.00,,,0.00,WeatherCatV1.11B39,2013-03-13 08:08:00,
2013-03-13 04:13:00,46.4,31.1,30.05,NW,323,3.0,9.0,55,0.00,,,0.00,WeatherCatV1.11B39,2013-03-13 08:13:00,
2013-03-13 04:18:00,46.4,31.1,30.05,NW,311,5.0,12.0,55,0.00,,,0.00,WeatherCatV1.11B39,2013-03-13 08:18:00,
2013-03-13 04:23:00,46.4,31.1,30.05,NW,317,4.0,6.0,55,0.00,,,0.00,WeatherCatV1.11B39,2013-03-13 08:23:00,
2013-03-13 04:28:00,46.5,31.2,30.05,WNW,296,7.0,12.0,55,0.00,,,0.00,WeatherCatV1.11B39,2013-03-13 08:28:00,
2013-03-13 04:33:00,46.4,31.1,30.05,WNW,288,10.0,13.0,55,0.00,,,0.00,WeatherCatV1.11B39,2013-03-13 08:33:00,
2013-03-13 04:38:00,46.6,31.3,30.05,WNW,301,3.0,9.0,55,0.00,,,0.00,WeatherCatV1.11B39,2013-03-13 08:38:00,
2013-03-13 04:43:00,46.5,31.2,30.05,NW,309,5.0,10.0,55,0.00,,,0.00,WeatherCatV1.11B39,2013-03-13 08:43:00,
2013-03-13 04:48:00,46.5,30.8,30.06,NNW,329,3.0,15.0,54,0.00,,,0.00,WeatherCatV1.11B39,2013-03-13 08:48:00,
2013-03-13 04:53:00,46.5,31.2,30.06,WNW,300,9.0,19.0,55,0.00,,,0.00,WeatherCatV1.11B39,2013-03-13 08:53:00,
2013-03-13 04:58:00,46.5,31.2,30.06,NW,315,6.0,11.0,55,0.00,,,0.00,WeatherCatV1.11B39,2013-03-13 08:58:00,
2013-03-13 05:03:00,46.4,31.1,30.06,West,267,7.0,14.0,55,0.00,,,0.00,WeatherCatV1.11B39,2013-03-13 09:03:00,
2013-03-13 05:08:00,46.3,31.0,30.06,NNW,329,14.0,14.0,55,0.00,,,0.00,WeatherCatV1.11B39,2013-03-13 09:08:00,
2013-03-13 05:13:00,46.2,30.9,30.07,NNW,329,12.0,14.0,55,0.00,,,0.00,WeatherCatV1.11B39,2013-03-13 09:13:00,
2013-03-13 05:18:00,46.2,30.9,30.07,NW,323,4.0,13.0,55,0.00,,,0.00,WeatherCatV1.11B39,2013-03-13 09:18:00,
2013-03-13 05:23:00,46.0,31.2,30.07,NW,312,7.0,12.0,56,0.00,,,0.00,WeatherCatV1.11B39,2013-03-13 09:23:00,
2013-03-13 05:28:00,45.9,31.1,30.07,WNW,298,5.0,13.0,56,0.00,,,0.00,WeatherCatV1.11B39,2013-03-13 09:28:00,
2013-03-13 05:33:00,45.7,31.3,30.07,NW,321,7.0,13.0,57,0.00,,,0.00,WeatherCatV1.11B39,2013-03-13 09:33:00,
2013-03-13 05:38:00,45.6,30.8,30.08,NNW,340,5.0,11.0,56,0.00,,,0.00,WeatherCatV1.11B39,2013-03-13 09:38:00,
2013-03-13 05:43:00,45.5,31.2,30.08,WNW,286,6.0,9.0,57,0.00,,,0.00,WeatherCatV1.11B39,2013-03-13 09:43:00,
2013-03-13 05:48:00,45.4,31.1,30.08,WNW,292,6.0,12.0,57,0.00,,,0.00,WeatherCatV1.11B39,2013-03-13 09:48:00,
2013-03-13 05:53:00,45.3,31.0,30.08,WNW,293,7.0,11.0,57,0.00,,,0.00,WeatherCatV1.11B39,2013-03-13 09:53:00,
2013-03-13 05:58:00,45.2,30.9,30.08,NNW,332,3.0,9.0,57,0.00,,,0.00,WeatherCatV1.11B39,2013-03-13 09:58:00,
2013-03-13 06:03:00,45.0,31.1,30.09,NW,319,10.0,11.0,58,0.00,,,0.00,WeatherCatV1.11B39,2013-03-13 10:03:00,
2013-03-13 06:08:00,45.0,31.1,30.09,NNW,328,8.0,13.0,58,0.00,,,0.00,WeatherCatV1.11B39,2013-03-13 10:08:00,
2013-03-13 06:13:00,44.9,31.0,30.09,WNW,295,6.0,10.0,58,0.00,,,0.00,WeatherCatV1.11B39,2013-03-13 10:13:00,
2013-03-13 06:18:00,44.8,30.9,30.09,WNW,300,9.0,12.0,58,0.00,,,0.00,WeatherCatV1.11B39,2013-03-13 10:18:00,
2013-03-13 06:23:00,44.7,30.8,30.09,WNW,301,3.0,12.0,58,0.00,,,0.00,WeatherCatV1.11B39,2013-03-13 10:23:00,
2013-03-13 06:28:00,44.6,30.7,30.10,NW,316,9.0,13.0,58,0.00,,,0.00,WeatherCatV1.11B39,2013-03-13 10:28:00,
2013-03-13 06:33:00,44.5,31.1,30.10,NNW,338,4.0,12.0,59,0.00,,,0.00,WeatherCatV1.11B39,2013-03-13 10:33:00,
2013-03-13 06:38:00,44.5,31.1,30.10,West,280,12.0,13.0,59,0.00,,,0.00,WeatherCatV1.11B39,2013-03-13 10:38:00,
2013-03-13 06:43:00,44.3,30.9,30.10,NW,306,6.0,11.0,59,0.00,,,0.00,WeatherCatV1.11B39,2013-03-13 10:43:00,
2013-03-13 06:48:00,44.3,30.9,30.10,NW,321,9.0,9.0,59,0.00,,,0.00,WeatherCatV1.11B39,2013-03-13 10:48:00,
2013-03-13 06:53:00,44.3,30.9,30.10,NNW,343,3.0,10.0,59,0.00,,,0.00,WeatherCatV1.11B39,2013-03-13 10:53:00,
2013-03-13 06:58:00,44.2,30.8,30.10,WNW,298,4.0,10.0,59,0.00,,,0.00,WeatherCatV1.11B39,2013-03-13 10:58:00,
2013-03-13 07:03:00,44.0,31.0,30.11,NW,305,5.0,8.0,60,0.00,,,0.00,WeatherCatV1.11B39,2013-03-13 11:03:00,
2013-03-13 07:08:00,43.8,30.8,30.11,NW,308,7.0,9.0,60,0.00,,,0.00,WeatherCatV1.11B39,2013-03-13 11:08:00,
2013-03-13 07:14:00,43.8,30.8,30.11,WNW,300,3.0,11.0,60,0.00,,,0.00,WeatherCatV1.11B39,2013-03-13 11:14:00,
2013-03-13 07:19:00,43.8,30.8,30.11,West,271,6.0,9.0,60,0.00,,,0.00,WeatherCatV1.11B39,2013-03-13 11:19:00,
2013-03-13 07:24:00,43.7,31.1,30.11,WNW,302,6.0,9.0,61,0.00,,,0.00,WeatherCatV1.11B39,2013-03-13 11:24:00,
2013-03-13 07:29:00,43.5,31.0,30.12,WNW,299,8.0,8.0,61,0.00,,,0.00,WeatherCatV1.11B39,2013-03-13 11:29:00,
2013-03-13 07:34:00,43.4,30.9,30.12,WNW,292,3.0,6.0,61,0.00,,,0.00,WeatherCatV1.11B39,2013-03-13 11:34:00,
2013-03-13 07:39:00,43.3,30.8,30.12,NW,317,7.0,7.0,61,0.00,,,0.00,WeatherCatV1.11B39,2013-03-13 11:39:00,
2013-03-13 07:44:00,43.3,31.2,30.12,NW,306,4.0,9.0,62,0.00,,,0.00,WeatherCatV1.11B39,2013-03-13 11:44:00,
2013-03-13 07:49:00,43.3,31.2,30.12,WNW,296,3.0,8.0,62,0.00,,,0.00,WeatherCatV1.11B39,2013-03-13 11:49:00,
2013-03-13 07:54:00,43.3,31.2,30.12,WNW,302,4.0,9.0,62,0.00,,,0.00,WeatherCatV1.11B39,2013-03-13 11:54:00,
2013-03-13 07:59:00,43.4,31.3,30.13,WNW,302,2.0,5.0,62,0.00,,,0.00,WeatherCatV1.11B39,2013-03-13 11:59:00,
2013-03-13 08:04:00,43.4,31.3,30.12,WNW,303,6.0,7.0,62,0.00,,,0.00,WeatherCatV1.11B39,2013-03-13 12:04:00,
2013-03-13 08:09:00,43.6,31.8,30.13,NW,309,2.0,8.0,63,0.00,,,0.00,WeatherCatV1.11B39,2013-03-13 12:09:00,
2013-03-13 08:14:00,43.7,31.5,30.13,WNW,296,0.0,7.0,62,0.00,,,0.00,WeatherCatV1.11B39,2013-03-13 12:14:00,
2013-03-13 08:19:00,43.8,31.6,30.13,WNW,284,1.0,6.0,62,0.00,,,0.00,WeatherCatV1.11B39,2013-03-13 12:19:00,
2013-03-13 08:24:00,43.9,31.7,30.13,West,274,2.0,8.0,62,0.00,,,0.00,WeatherCatV1.11B39,2013-03-13 12:24:00,
2013-03-13 08:29:00,44.2,32.8,30.13,West,278,0.0,5.0,64,0.00,,,0.00,WeatherCatV1.11B39,2013-03-13 12:29:00,
2013-03-13 08:34:00,44.5,32.7,30.13,WNW,296,5.0,8.0,63,0.00,,,0.00,WeatherCatV1.11B39,2013-03-13 12:34:00,
2013-03-13 08:39:00,44.9,32.3,30.14,West,279,2.0,8.0,61,0.00,,,0.00,WeatherCatV1.11B39,2013-03-13 12:39:00,
2013-03-13 08:44:00,45.3,32.2,30.14,West,262,5.0,9.0,60,0.00,,,0.00,WeatherCatV1.11B39,2013-03-13 12:44:00,
2013-03-13 08:49:00,45.8,32.7,30.14,WNW,286,1.0,6.0,60,0.00,,,0.00,WeatherCatV1.11B39,2013-03-13 12:49:00,
2013-03-13 08:54:00,46.5,32.5,30.14,WNW,291,3.0,4.0,58,0.00,,,0.00,WeatherCatV1.11B39,2013-03-13 12:54:00,
2013-03-13 08:59:00,47.2,32.8,30.14,WNW,288,0.0,6.0,57,0.00,,,0.00,WeatherCatV1.11B39,2013-03-13 12:59:00,
2013-03-13 09:04:00,47.7,32.8,30.14,WNW,298,3.0,4.0,56,0.00,,,0.00,WeatherCatV1.11B39,2013-03-13 13:04:00,
2013-03-13 09:09:00,48.2,32.8,30.14,WNW,293,2.0,8.0,55,0.00,,,0.00,WeatherCatV1.11B39,2013-03-13 13:09:00,
2013-03-13 09:14:00,48.7,32.8,30.15,WNW,292,0.0,6.0,54,0.00,,,0.00,WeatherCatV1.11B39,2013-03-13 13:14:00,
2013-03-13 09:19:00,49.1,33.2,30.15,WNW,290,5.0,7.0,54,0.00,,,0.00,WeatherCatV1.11B39,2013-03-13 13:19:00,
2013-03-13 09:24:00,49.6,32.7,30.15,West,266,2.0,6.0,52,0.00,,,0.00,WeatherCatV1.11B39,2013-03-13 13:24:00,
2013-03-13 09:29:00,50.2,32.8,30.15,WNW,283,5.0,8.0,51,0.00,,,0.00,WeatherCatV1.11B39,2013-03-13 13:29:00,
2013-03-13 09:34:00,50.7,33.2,30.15,WNW,284,2.0,5.0,51,0.00,,,0.00,WeatherCatV1.11B39,2013-03-13 13:34:00,
2013-03-13 09:39:00,51.2,33.7,30.15,West,274,2.0,6.0,51,0.00,,,0.00,WeatherCatV1.11B39,2013-03-13 13:39:00,
2013-03-13 09:44:00,51.7,33.2,30.15,NW,304,0.0,6.0,49,0.00,,,0.00,WeatherCatV1.11B39,2013-03-13 13:44:00,
2013-03-13 09:49:00,52.2,33.6,30.15,WNW,284,5.0,7.0,49,0.00,,,0.00,WeatherCatV1.11B39,2013-03-13 13:49:00,
2013-03-13 09:54:00,52.5,33.9,30.15,WNW,284,4.0,10.0,49,0.00,,,0.00,WeatherCatV1.11B39,2013-03-13 13:54:00,
2013-03-13 09:59:00,52.8,33.1,30.15,WNW,286,7.0,10.0,47,0.00,,,0.00,WeatherCatV1.11B39,2013-03-13 13:59:00,
2013-03-13 10:04:00,53.1,32.9,30.15,WNW,289,10.0,12.0,46,0.00,,,0.00,WeatherCatV1.11B39,2013-03-13 14:04:00,
2013-03-13 10:09:00,53.5,32.7,30.15,WNW,284,8.0,9.0,45,0.00,,,0.00,WeatherCatV1.11B39,2013-03-13 14:09:00,
2013-03-13 10:14:00,53.9,32.5,30.15,West,271,9.0,10.0,44,0.00,,,0.00,WeatherCatV1.11B39,2013-03-13 14:14:00,
2013-03-13 10:19:00,54.4,31.8,30.16,West,279,12.0,12.0,42,0.00,,,0.00,WeatherCatV1.11B39,2013-03-13 14:19:00,
2013-03-13 10:24:00,55.0,31.1,30.16,WNW,293,4.0,10.0,40,0.00,,,0.00,WeatherCatV1.11B39,2013-03-13 14:24:00,
2013-03-13 10:29:00,55.2,30.0,30.16,WNW,296,1.0,11.0,38,0.00,,,0.00,WeatherCatV1.11B39,2013-03-13 14:29:00,
2013-03-13 10:34:00,55.6,31.0,30.16,WNW,300,4.0,8.0,39,0.00,,,0.00,WeatherCatV1.11B39,2013-03-13 14:34:00,
2013-03-13 10:39:00,55.9,30.7,30.16,NW,324,3.0,6.0,38,0.00,,,0.00,WeatherCatV1.11B39,2013-03-13 14:39:00,
2013-03-13 10:45:00,56.2,30.3,30.16,NNW,336,10.0,13.0,37,0.00,,,0.00,WeatherCatV1.11B39,2013-03-13 14:45:00,
2013-03-13 10:50:00,56.7,30.0,30.16,NW,318,5.0,13.0,36,0.00,,,0.00,WeatherCatV1.11B39,2013-03-13 14:50:00,
2013-03-13 10:55:00,56.9,29.5,30.16,NW,309,6.0,9.0,35,0.00,,,0.00,WeatherCatV1.11B39,2013-03-13 14:55:00,
2013-03-13 11:00:00,57.7,30.9,30.16,West,274,2.0,14.0,36,0.00,,,0.00,WeatherCatV1.11B39,2013-03-13 15:00:00,
2013-03-13 11:05:00,57.3,29.2,30.16,NW,311,10.0,16.0,34,0.00,,,0.00,WeatherCatV1.11B39,2013-03-13 15:05:00,
2013-03-13 11:10:00,57.8,28.9,30.16,WNW,286,5.0,12.0,33,0.00,,,0.00,WeatherCatV1.11B39,2013-03-13 15:10:00,
2013-03-13 11:15:00,57.2,26.8,30.16,WNW,287,11.0,11.0,31,0.00,,,0.00,WeatherCatV1.11B39,2013-03-13 15:15:00,
2013-03-13 11:20:00,57.1,26.8,30.16,NW,309,9.0,14.0,31,0.00,,,0.00,WeatherCatV1.11B39,2013-03-13 15:20:00,
2013-03-13 11:25:00,57.6,26.4,30.15,West,281,6.0,15.0,30,0.00,,,0.00,WeatherCatV1.11B39,2013-03-13 15:25:00,
2013-03-13 11:30:00,57.6,28.7,30.15,West,263,10.0,16.0,33,0.00,,,0.00,WeatherCatV1.11B39,2013-03-13 15:30:00,
2013-03-13 11:35:00,58.6,28.1,30.15,West,273,2.0,9.0,31,0.00,,,0.00,WeatherCatV1.11B39,2013-03-13 15:35:00,
2013-03-13 11:40:00,58.2,27.7,30.15,West,275,0.0,7.0,31,0.00,,,0.00,WeatherCatV1.11B39,2013-03-13 15:40:00,
2013-03-13 11:45:00,58.5,27.2,30.15,WSW,244,8.0,10.0,30,0.00,,,0.00,WeatherCatV1.11B39,2013-03-13 15:45:00,
2013-03-13 11:50:00,58.7,29.7,30.14,West,270,7.0,10.0,33,0.00,,,0.00,WeatherCatV1.11B39,2013-03-13 15:50:00,
2013-03-13 11:55:00,59.0,28.4,30.14,WNW,298,0.0,19.0,31,0.00,,,0.00,WeatherCatV1.11B39,2013-03-13 15:55:00,
2013-03-13 12:00:00,59.9,28.4,30.14,WSW,254,22.0,22.0,30,0.00,,,0.00,WeatherCatV1.11B39,2013-03-13 16:00:00,
2013-03-13 12:05:00,59.0,28.4,30.14,WNW,300,17.0,20.0,31,0.00,,,0.00,WeatherCatV1.11B39,2013-03-13 16:05:00,
2013-03-13 12:10:00,58.7,27.4,30.14,NNW,334,10.0,14.0,30,0.00,,,0.00,WeatherCatV1.11B39,2013-03-13 16:10:00,
2013-03-13 12:15:00,59.0,27.6,30.14,NW,311,8.0,15.0,30,0.00,,,0.00,WeatherCatV1.11B39,2013-03-13 16:15:00,
2013-03-13 12:20:00,59.5,28.8,30.14,NW,321,7.0,15.0,31,0.00,,,0.00,WeatherCatV1.11B39,2013-03-13 16:20:00,
2013-03-13 12:25:00,59.8,28.3,30.13,West,271,10.0,15.0,30,0.00,,,0.00,WeatherCatV1.11B39,2013-03-13 16:25:00,
2013-03-13 12:30:00,59.9,28.4,30.13,WNW,286,7.0,18.0,30,0.00,,,0.00,WeatherCatV1.11B39,2013-03-13 16:30:00,
2013-03-13 12:35:00,59.8,28.3,30.13,West,275,2.0,16.0,30,0.00,,,0.00,WeatherCatV1.11B39,2013-03-13 16:35:00,
2013-03-13 12:40:00,59.3,27.9,30.13,WNW,293,7.0,18.0,30,0.00,,,0.00,WeatherCatV1.11B39,2013-03-13 16:40:00,
2013-03-13 12:45:00,59.4,27.1,30.12,NW,306,9.0,20.0,29,0.00,,,0.00,WeatherCatV1.11B39,2013-03-13 16:45:00,
2013-03-13 12:50:00,59.3,27.9,30.12,West,278,17.0,25.0,30,0.00,,,0.00,WeatherCatV1.11B39,2013-03-13 16:50:00,
2013-03-13 12:55:00,59.8,27.5,30.12,West,263,7.0,20.0,29,0.00,,,0.00,WeatherCatV1.11B39,2013-03-13 16:55:00,
2013-03-13 13:00:00,59.4,28.0,30.12,WNW,289,6.0,20.0,30,0.00,,,0.00,WeatherCatV1.11B39,2013-03-13 17:00:00,
2013-03-13 13:05:00,60.4,28.0,30.12,WNW,300,21.0,21.0,29,0.00,,,0.00,WeatherCatV1.11B39,2013-03-13 17:05:00,
2013-03-13 13:10:00,60.2,27.8,30.11,West,275,5.0,14.0,29,0.00,,,0.00,WeatherCatV1.11B39,2013-03-13 17:10:00,
2013-03-13 13:15:00,60.9,29.3,30.11,NW,304,6.0,14.0,30,0.00,,,0.00,WeatherCatV1.11B39,2013-03-13 17:15:00,
2013-03-13 13:20:00,60.8,29.2,30.10,WSW,249,8.0,18.0,30,0.00,,,0.00,WeatherCatV1.11B39,2013-03-13 17:20:00,
2013-03-13 13:25:00,60.9,28.4,30.10,NW,308,6.0,6.0,29,0.00,,,0.00,WeatherCatV1.11B39,2013-03-13 17:25:00,
2013-03-13 13:30:00,61.3,28.8,30.10,West,266,17.0,18.0,29,0.00,,,0.00,WeatherCatV1.11B39,2013-03-13 17:30:00,
2013-03-13 13:35:00,61.3,27.9,30.10,West,269,7.0,14.0,28,0.00,,,0.00,WeatherCatV1.11B39,2013-03-13 17:35:00,
2013-03-13 13:40:00,60.7,28.3,30.10,NW,324,14.0,21.0,29,0.00,,,0.00,WeatherCatV1.11B39,2013-03-13 17:40:00,
2013-03-13 13:45:00,60.6,30.6,30.09,WSW,242,4.0,11.0,32,0.00,,,0.00,WeatherCatV1.11B39,2013-03-13 17:45:00,
2013-03-13 13:50:00,61.2,27.8,30.09,WNW,283,7.0,21.0,28,0.00,,,0.00,WeatherCatV1.11B39,2013-03-13 17:50:00,
2013-03-13 13:55:00,61.1,26.9,30.09,West,273,10.0,16.0,27,0.00,,,0.00,WeatherCatV1.11B39,2013-03-13 17:55:00,
2013-03-13 14:00:00,61.6,28.2,30.09,NW,309,21.0,21.0,28,0.00,,,0.00,WeatherCatV1.11B39,2013-03-13 18:00:00,
2013-03-13 14:05:00,61.0,28.5,30.09,SW,235,6.0,14.0,29,0.00,,,0.00,WeatherCatV1.11B39,2013-03-13 18:05:00,
2013-03-13 14:10:00,61.9,28.4,30.08,SW,232,6.0,14.0,28,0.00,,,0.00,WeatherCatV1.11B39,2013-03-13 18:10:00,
2013-03-13 14:16:00,62.2,26.9,30.08,West,264,7.0,20.0,26,0.00,,,0.00,WeatherCatV1.11B39,2013-03-13 18:16:00,
2013-03-13 14:21:00,61.7,25.5,30.08,NW,317,8.0,16.0,25,0.00,,,0.00,WeatherCatV1.11B39,2013-03-13 18:21:00,
2013-03-13 14:26:00,61.3,27.0,30.08,WNW,298,14.0,22.0,27,0.00,,,0.00,WeatherCatV1.11B39,2013-03-13 18:26:00,
2013-03-13 14:31:00,61.6,25.4,30.07,WNW,288,6.0,18.0,25,0.00,,,0.00,WeatherCatV1.11B39,2013-03-13 18:31:00,
2013-03-13 14:36:00,62.5,27.2,30.07,WNW,287,1.0,8.0,26,0.00,,,0.00,WeatherCatV1.11B39,2013-03-13 18:36:00,
2013-03-13 14:41:00,63.1,27.7,30.06,West,259,13.0,25.0,26,0.00,,,0.00,WeatherCatV1.11B39,2013-03-13 18:41:00,
2013-03-13 14:46:00,62.5,27.2,30.06,WSW,255,6.0,24.0,26,0.00,,,0.00,WeatherCatV1.11B39,2013-03-13 18:46:00,
2013-03-13 14:51:00,62.7,24.4,30.05,WSW,250,7.0,24.0,23,0.00,,,0.00,WeatherCatV1.11B39,2013-03-13 18:51:00,
2013-03-13 14:56:00,63.0,27.6,30.05,West,280,8.0,20.0,26,0.00,,,0.00,WeatherCatV1.11B39,2013-03-13 18:56:00,
2013-03-13 15:01:00,62.7,25.4,30.05,West,265,4.0,23.0,24,0.00,,,0.00,WeatherCatV1.11B39,2013-03-13 19:01:00,
2013-03-13 15:06:00,62.5,26.2,30.05,NW,306,11.0,20.0,25,0.00,,,0.00,WeatherCatV1.11B39,2013-03-13 19:06:00,
2013-03-13 15:11:00,62.6,27.2,30.05,SW,231,14.0,15.0,26,0.00,,,0.00,WeatherCatV1.11B39,2013-03-13 19:11:00,
2013-03-13 15:16:00,62.5,25.2,30.05,WNW,290,4.0,17.0,24,0.00,,,0.00,WeatherCatV1.11B39,2013-03-13 19:16:00,
2013-03-13 15:21:00,62.1,24.9,30.05,NW,323,7.0,20.0,24,0.00,,,0.00,WeatherCatV1.11B39,2013-03-13 19:21:00,
2013-03-13 15:26:00,62.7,27.3,30.05,WNW,283,22.0,27.0,26,0.00,,,0.00,WeatherCatV1.11B39,2013-03-13 19:26:00,
2013-03-13 15:31:00,62.2,26.0,30.05,NW,315,19.0,24.0,25,0.00,,,0.00,WeatherCatV1.11B39,2013-03-13 19:31:00,
2013-03-13 15:36:00,61.7,24.5,30.04,West,271,2.0,12.0,24,0.00,,,0.00,WeatherCatV1.11B39,2013-03-13 19:36:00,
2013-03-13 15:41:00,62.4,26.1,30.03,WSW,247,5.0,17.0,25,0.00,,,0.00,WeatherCatV1.11B39,2013-03-13 19:41:00,
2013-03-13 15:46:00,63.2,25.8,30.03,West,272,18.0,18.0,24,0.00,,,0.00,WeatherCatV1.11B39,2013-03-13 19:46:00,
2013-03-13 15:51:00,63.3,25.9,30.04,SW,236,9.0,14.0,24,0.00,,,0.00,WeatherCatV1.11B39,2013-03-13 19:51:00,
2013-03-13 15:56:00,63.6,25.1,30.03,West,260,16.0,16.0,23,0.00,,,0.00,WeatherCatV1.11B39,2013-03-13 19:56:00,
2013-03-13 16:01:00,64.0,24.4,30.04,West,263,17.0,18.0,22,0.00,,,0.00,WeatherCatV1.11B39,2013-03-13 20:01:00,
2013-03-13 16:06:00,63.0,22.5,30.04,WNW,297,14.0,30.0,21,0.00,,,0.00,WeatherCatV1.11B39,2013-03-13 20:06:00,
2013-03-13 16:11:00,62.6,22.1,30.03,WNW,286,15.0,18.0,21,0.00,,,0.00,WeatherCatV1.11B39,2013-03-13 20:11:00,
2013-03-13 16:16:00,62.2,22.9,30.03,NW,315,25.0,30.0,22,0.00,,,0.00,WeatherCatV1.11B39,2013-03-13 20:16:00,
2013-03-13 16:21:00,62.0,21.6,30.03,West,279,14.0,24.0,21,0.00,,,0.00,WeatherCatV1.11B39,2013-03-13 20:21:00,
2013-03-13 16:26:00,61.7,21.4,30.04,NW,323,13.0,22.0,21,0.00,,,0.00,WeatherCatV1.11B39,2013-03-13 20:26:00,
2013-03-13 16:31:00,62.2,21.8,30.03,NW,320,4.0,17.0,21,0.00,,,0.00,WeatherCatV1.11B39,2013-03-13 20:31:00,
2013-03-13 16:36:00,63.3,22.7,30.04,West,275,6.0,14.0,21,0.00,,,0.00,WeatherCatV1.11B39,2013-03-13 20:36:00,
2013-03-13 16:41:00,62.6,21.0,30.04,West,263,25.0,25.0,20,0.00,,,0.00,WeatherCatV1.11B39,2013-03-13 20:41:00,
2013-03-13 16:46:00,62.3,19.5,30.03,WNW,302,13.0,20.0,19,0.00,,,0.00,WeatherCatV1.11B39,2013-03-13 20:46:00,
2013-03-13 16:51:00,62.1,20.6,30.04,WSW,253,13.0,14.0,20,0.00,,,0.00,WeatherCatV1.11B39,2013-03-13 20:51:00,
2013-03-13 16:56:00,61.9,20.4,30.04,West,279,6.0,16.0,20,0.00,,,0.00,WeatherCatV1.11B39,2013-03-13 20:56:00,
2013-03-13 17:01:00,62.3,21.9,30.03,West,271,14.0,16.0,21,0.00,,,0.00,WeatherCatV1.11B39,2013-03-13 21:01:00,
2013-03-13 17:06:00,62.6,22.1,30.04,West,261,7.0,14.0,21,0.00,,,0.00,WeatherCatV1.11B39,2013-03-13 21:06:00,
2013-03-13 17:11:00,62.0,21.6,30.04,NW,304,23.0,23.0,21,0.00,,,0.00,WeatherCatV1.11B39,2013-03-13 21:11:00,
2013-03-13 17:16:00,61.3,22.1,30.04,WNW,292,17.0,23.0,22,0.00,,,0.00,WeatherCatV1.11B39,2013-03-13 21:16:00,
2013-03-13 17:22:00,60.7,21.6,30.04,WSW,245,8.0,21.0,22,0.00,,,0.00,WeatherCatV1.11B39,2013-03-13 21:22:00,
2013-03-13 17:27:00,60.7,21.6,30.04,North,349,9.0,20.0,22,0.00,,,0.00,WeatherCatV1.11B39,2013-03-13 21:27:00,
2013-03-13 17:32:00,60.4,22.4,30.04,West,274,13.0,20.0,23,0.00,,,0.00,WeatherCatV1.11B39,2013-03-13 21:32:00,
2013-03-13 17:37:00,60.2,23.3,30.04,SW,232,15.0,15.0,24,0.00,,,0.00,WeatherCatV1.11B39,2013-03-13 21:37:00,
2013-03-13 17:42:00,60.0,23.1,30.05,North,355,7.0,15.0,24,0.00,,,0.00,WeatherCatV1.11B39,2013-03-13 21:42:00,
2013-03-13 17:47:00,59.8,22.9,30.05,WNW,301,10.0,10.0,24,0.00,,,0.00,WeatherCatV1.11B39,2013-03-13 21:47:00,
2013-03-13 17:52:00,59.7,22.9,30.05,WNW,288,10.0,20.0,24,0.00,,,0.00,WeatherCatV1.11B39,2013-03-13 21:52:00,
2013-03-13 17:57:00,59.5,22.7,30.05,NW,313,15.0,23.0,24,0.00,,,0.00,WeatherCatV1.11B39,2013-03-13 21:57:00,
2013-03-13 18:02:00,59.1,23.3,30.05,WNW,296,7.0,16.0,25,0.00,,,0.00,WeatherCatV1.11B39,2013-03-13 22:02:00,
2013-03-13 18:07:00,59.0,22.3,30.05,WSW,257,12.0,13.0,24,0.00,,,0.00,WeatherCatV1.11B39,2013-03-13 22:07:00,
2013-03-13 18:12:00,59.0,22.3,30.05,NW,320,10.0,15.0,24,0.00,,,0.00,WeatherCatV1.11B39,2013-03-13 22:12:00,
2013-03-13 18:17:00,59.0,22.3,30.05,West,262,21.0,21.0,24,0.00,,,0.00,WeatherCatV1.11B39,2013-03-13 22:17:00,
2013-03-13 18:22:00,59.0,23.2,30.05,North,0,11.0,13.0,25,0.00,,,0.00,WeatherCatV1.11B39,2013-03-13 22:22:00,
2013-03-13 18:27:00,58.6,23.8,30.05,SW,226,2.0,18.0,26,0.00,,,0.00,WeatherCatV1.11B39,2013-03-13 22:27:00,
2013-03-13 18:32:00,58.6,23.8,30.05,West,269,5.0,11.0,26,0.00,,,0.00,WeatherCatV1.11B39,2013-03-13 22:32:00,
2013-03-13 18:37:00,58.5,23.7,30.05,WNW,298,14.0,18.0,26,0.00,,,0.00,WeatherCatV1.11B39,2013-03-13 22:37:00,
2013-03-13 18:42:00,58.4,24.6,30.05,WNW,289,8.0,11.0,27,0.00,,,0.00,WeatherCatV1.11B39,2013-03-13 22:42:00,
2013-03-13 18:47:00,58.1,23.4,30.06,NW,310,12.0,19.0,26,0.00,,,0.00,WeatherCatV1.11B39,2013-03-13 22:47:00,
2013-03-13 18:52:00,57.8,22.2,30.06,NW,309,11.0,25.0,25,0.00,,,0.00,WeatherCatV1.11B39,2013-03-13 22:52:00,
2013-03-13 18:57:00,57.6,22.0,30.06,NW,315,12.0,17.0,25,0.00,,,0.00,WeatherCatV1.11B39,2013-03-13 22:57:00,
2013-03-13 19:02:00,57.4,22.8,30.06,WNW,288,9.0,12.0,26,0.00,,,0.00,WeatherCatV1.11B39,2013-03-13 23:02:00,
2013-03-13 19:07:00,57.1,23.4,30.06,NW,313,4.0,19.0,27,0.00,,,0.00,WeatherCatV1.11B39,2013-03-13 23:07:00,
2013-03-13 19:12:00,56.9,23.3,30.07,NW,321,4.0,26.0,27,0.00,,,0.00,WeatherCatV1.11B39,2013-03-13 23:12:00,
2013-03-13 19:17:00,56.7,23.1,30.07,WSW,244,6.0,11.0,27,0.00,,,0.00,WeatherCatV1.11B39,2013-03-13 23:17:00,
2013-03-13 19:22:00,56.5,23.8,30.07,WSW,254,6.0,14.0,28,0.00,,,0.00,WeatherCatV1.11B39,2013-03-13 23:22:00,
2013-03-13 19:27:00,56.3,23.6,30.07,NW,312,6.0,16.0,28,0.00,,,0.00,WeatherCatV1.11B39,2013-03-13 23:27:00,
2013-03-13 19:32:00,56.0,24.2,30.08,NW,308,17.0,17.0,29,0.00,,,0.00,WeatherCatV1.11B39,2013-03-13 23:32:00,
2013-03-13 19:37:00,55.7,23.1,30.08,WNW,286,2.0,15.0,28,0.00,,,0.00,WeatherCatV1.11B39,2013-03-13 23:37:00,
2013-03-13 19:42:00,55.5,23.8,30.08,NW,312,7.0,10.0,29,0.00,,,0.00,WeatherCatV1.11B39,2013-03-13 23:42:00,
2013-03-13 19:47:00,55.2,24.3,30.08,NW,306,1.0,8.0,30,0.00,,,0.00,WeatherCatV1.11B39,2013-03-13 23:47:00,
2013-03-13 19:52:00,54.8,24.0,30.09,NW,314,7.0,8.0,30,0.00,,,0.00,WeatherCatV1.11B39,2013-03-13 23:52:00,
2013-03-13 19:57:00,54.4,24.4,30.09,NW,323,6.0,9.0,31,0.00,,,0.00,WeatherCatV1.11B39,2013-03-13 23:57:00,
2013-03-13 20:02:00,54.1,24.1,30.09,WNW,296,4.0,16.0,31,0.00,,,0.00,WeatherCatV1.11B39,2013-03-14 00:02:00,
2013-03-13 20:07:00,53.9,24.7,30.10,NW,309,8.0,8.0,32,0.00,,,0.00,WeatherCatV1.11B39,2013-03-14 00:07:00,
2013-03-13 20:12:00,53.6,24.5,30.10,NW,315,11.0,11.0,32,0.00,,,0.00,WeatherCatV1.11B39,2013-03-14 00:12:00,
2013-03-13 20:17:00,53.4,23.5,30.10,WNW,298,2.0,12.0,31,0.00,,,0.00,WeatherCatV1.11B39,2013-03-14 00:17:00,
2013-03-13 20:22:00,53.2,23.4,30.11,NNW,342,4.0,7.0,31,0.00,,,0.00,WeatherCatV1.11B39,2013-03-14 00:22:00,
2013-03-13 20:27:00,53.0,23.9,30.11,NW,323,7.0,12.0,32,0.00,,,0.00,WeatherCatV1.11B39,2013-03-14 00:27:00,
2013-03-13 20:32:00,52.8,23.0,30.11,NW,315,0.0,8.0,31,0.00,,,0.00,WeatherCatV1.11B39,2013-03-14 00:32:00,
2013-03-13 20:37:00,52.7,22.9,30.11,NW,321,3.0,9.0,31,0.00,,,0.00,WeatherCatV1.11B39,2013-03-14 00:37:00,
2013-03-13 20:42:00,52.4,23.4,30.11,NW,325,8.0,9.0,32,0.00,,,0.00,WeatherCatV1.11B39,2013-03-14 00:42:00,
2013-03-13 20:47:00,52.2,23.2,30.11,NNW,327,4.0,7.0,32,0.00,,,0.00,WeatherCatV1.11B39,2013-03-14 00:47:00,
2013-03-13 20:53:00,51.9,23.7,30.11,North,355,1.0,10.0,33,0.00,,,0.00,WeatherCatV1.11B39,2013-03-14 00:53:00,
2013-03-13 20:58:00,51.5,24.8,30.12,WNW,285,1.0,11.0,35,0.00,,,0.00,WeatherCatV1.11B39,2013-03-14 00:58:00,
2013-03-13 21:03:00,51.2,23.1,30.12,WNW,302,6.0,12.0,33,0.00,,,0.00,WeatherCatV1.11B39,2013-03-14 01:03:00,
2013-03-13 21:08:00,51.2,23.1,30.12,NW,321,9.0,13.0,33,0.00,,,0.00,WeatherCatV1.11B39,2013-03-14 01:08:00,
2013-03-13 21:13:00,51.2,23.1,30.12,WNW,294,3.0,11.0,33,0.00,,,0.00,WeatherCatV1.11B39,2013-03-14 01:13:00,
2013-03-13 21:18:00,51.0,22.2,30.12,NNW,336,13.0,17.0,32,0.00,,,0.00,WeatherCatV1.11B39,2013-03-14 01:18:00,
2013-03-13 21:23:00,51.0,22.9,30.12,NW,319,3.0,14.0,33,0.00,,,0.00,WeatherCatV1.11B39,2013-03-14 01:23:00,
2013-03-13 21:28:00,50.8,22.7,30.12,NW,321,9.0,11.0,33,0.00,,,0.00,WeatherCatV1.11B39,2013-03-14 01:28:00,
2013-03-13 21:33:00,50.7,22.7,30.12,WNW,291,5.0,14.0,33,0.00,,,0.00,WeatherCatV1.11B39,2013-03-14 01:33:00,
2013-03-13 21:38:00,50.6,22.6,30.13,WNW,297,8.0,14.0,33,0.00,,,0.00,WeatherCatV1.11B39,2013-03-14 01:38:00,
2013-03-13 21:43:00,50.4,23.1,30.13,WNW,286,7.0,9.0,34,0.00,,,0.00,WeatherCatV1.11B39,2013-03-14 01:43:00,
2013-03-13 21:48:00,50.1,23.5,30.13,WNW,290,18.0,18.0,35,0.00,,,0.00,WeatherCatV1.11B39,2013-03-14 01:48:00,
2013-03-13 21:53:00,50.0,22.8,30.13,NW,318,7.0,13.0,34,0.00,,,0.00,WeatherCatV1.11B39,2013-03-14 01:53:00,
2013-03-13 21:58:00,49.9,22.7,30.14,NNW,344,4.0,11.0,34,0.00,,,0.00,WeatherCatV1.11B39,2013-03-14 01:58:00,
2013-03-13 22:03:00,49.7,22.5,30.14,NW,322,10.0,17.0,34,0.00,,,0.00,WeatherCatV1.11B39,2013-03-14 02:03:00,
2013-03-13 22:08:00,49.7,23.2,30.14,NW,306,7.0,20.0,35,0.00,,,0.00,WeatherCatV1.11B39,2013-03-14 02:08:00,
2013-03-13 22:13:00,49.6,22.4,30.14,WNW,302,14.0,14.0,34,0.00,,,0.00,WeatherCatV1.11B39,2013-03-14 02:13:00,
2013-03-13 22:18:00,49.5,23.0,30.14,NW,319,0.0,5.0,35,0.00,,,0.00,WeatherCatV1.11B39,2013-03-14 02:18:00,
2013-03-13 22:23:00,49.2,22.7,30.15,NNW,348,6.0,10.0,35,0.00,,,0.00,WeatherCatV1.11B39,2013-03-14 02:23:00,
2013-03-13 22:28:00,49.0,23.2,30.15,NNW,347,6.0,7.0,36,0.00,,,0.00,WeatherCatV1.11B39,2013-03-14 02:28:00,
2013-03-13 22:33:00,48.7,23.6,30.16,NW,315,6.0,9.0,37,0.00,,,0.00,WeatherCatV1.11B39,2013-03-14 02:33:00,
2013-03-13 22:38:00,48.3,23.3,30.16,NNW,333,5.0,10.0,37,0.00,,,0.00,WeatherCatV1.11B39,2013-03-14 02:38:00,
2013-03-13 22:43:00,48.1,23.1,30.16,NW,317,6.0,13.0,37,0.00,,,0.00,WeatherCatV1.11B39,2013-03-14 02:43:00,
2013-03-13 22:48:00,47.9,22.9,30.16,NW,319,0.0,14.0,37,0.00,,,0.00,WeatherCatV1.11B39,2013-03-14 02:48:00,
2013-03-13 22:53:00,47.7,22.7,30.17,NW,311,8.0,16.0,37,0.00,,,0.00,WeatherCatV1.11B39,2013-03-14 02:53:00,
2013-03-13 22:58:00,47.5,22.5,30.17,NNW,339,0.0,5.0,37,0.00,,,0.00,WeatherCatV1.11B39,2013-03-14 02:58:00,
2013-03-13 23:03:00,47.2,22.3,30.17,NNW,346,7.0,13.0,37,0.00,,,0.00,WeatherCatV1.11B39,2013-03-14 03:03:00,
2013-03-13 23:08:00,46.9,22.6,30.17,NW,320,8.0,20.0,38,0.00,,,0.00,WeatherCatV1.11B39,2013-03-14 03:08:00,
2013-03-13 23:13:00,46.7,22.5,30.17,NNW,332,5.0,10.0,38,0.00,,,0.00,WeatherCatV1.11B39,2013-03-14 03:13:00,
2013-03-13 23:18:00,46.4,22.2,30.17,NW,316,6.0,9.0,38,0.00,,,0.00,WeatherCatV1.11B39,2013-03-14 03:18:00,
2013-03-13 23:23:00,46.1,21.9,30.18,NW,306,9.0,9.0,38,0.00,,,0.00,WeatherCatV1.11B39,2013-03-14 03:23:00,
2013-03-13 23:28:00,46.0,22.4,30.18,NNW,330,4.0,6.0,39,0.00,,,0.00,WeatherCatV1.11B39,2013-03-14 03:28:00,
2013-03-13 23:33:00,45.8,21.7,30.18,NW,315,8.0,18.0,38,0.00,,,0.00,WeatherCatV1.11B39,2013-03-14 03:33:00,
2013-03-13 23:38:00,45.7,21.6,30.18,WNW,296,6.0,7.0,38,0.00,,,0.00,WeatherCatV1.11B39,2013-03-14 03:38:00,
2013-03-13 23:43:00,45.6,21.5,30.18,NNW,328,0.0,6.0,38,0.00,,,0.00,WeatherCatV1.11B39,2013-03-14 03:43:00,
2013-03-13 23:48:00,45.4,21.9,30.19,NW,319,0.0,9.0,39,0.00,,,0.00,WeatherCatV1.11B39,2013-03-14 03:48:00,
2013-03-13 23:53:00,45.1,21.6,30.19,NNW,333,9.0,17.0,39,0.00,,,0.00,WeatherCatV1.11B39,2013-03-14 03:53:00,
2013-03-13 23:58:00,45.0,21.5,30.19,NNW,338,9.0,15.0,39,0.00,,,0.00,WeatherCatV1.11B39,2013-03-14 03:58:00,